Regional Weather Roundup
Issued by NWS

Home | Current Version | Previous Version | Graphics & Text | Print | Product List | Glossary On
Versions: 1 2 3 4 5 6 7 8 9 10 11 12 13 14 15 16 17 18 19 20 21 22 23 24 25 26 27 28 29 30 31 32 33 34 35 36 37 38 39 40 41 42 43 44 45 46 47 48 49 50
000
ASUS43 KOAX 281010
RWRNE

WEATHER ROUNDUP FOR NEBRASKA
NATIONAL WEATHER SERVICE OMAHA NE
500 AM CDT SUN MAY 28 2017

NOTES: SATELLITE DATA IS BEING USED TO AUGMENT CLOUD COVER ABOVE
       12000 FEET.
       "FAIR" INDICATES FEW OR NO CLOUDS BELOW 12,000 FEET WITH NO
       SIGNIFICANT WEATHER AND/OR OBSTRUCTIONS TO VISIBILITY.

  * THESE STATIONS DO NOT REPORT WEATHER SUCH AS RAIN...SNOW OR FOG.

NEZ001>004-019>022-054>056-281100-
NEBRASKA PANHANDLE

CITY           SKY/WX    TMP DP  RH WIND       PRES   REMARKS
SCOTTSBLUFF    CLEAR     44  39  82 NW7       30.15F
ALLIANCE       CLEAR     39  37  92 W6        30.10S WCI  35
CHADRON        CLEAR     46  41  82 SW8       30.09F
GORDON         FAIR      47  40  77 W10       30.05F
KIMBALL        CLEAR     43  37  79 W8        30.19S
SIDNEY         PTCLDY    44  38  79 W13       30.15S
$$

NEZ057>060-069>072-079>082-281100-
SOUTHWEST NEBRASKA

CITY           SKY/WX    TMP DP  RH WIND       PRES   REMARKS
NORTH PLATTE   CLEAR     43  41  93 NW9       30.04S
IMPERIAL       CLEAR     48  41  76 W13       30.08F
LEXINGTON      CLEAR     47  45  90 W6        30.02S
MCCOOK         CLEAR     50  46  86 W10       30.05F
OGALLALA       CLEAR     46  43  88 SW7       30.08S
$$

NEZ005>010-023>029-035>040-094-281100-
NORTH CENTRAL NEBRASKA

CITY           SKY/WX    TMP DP  RH WIND       PRES   REMARKS
VALENTINE      CLEAR     49  43  80 NW8       29.98F
AINSWORTH      CLEAR     50  46  84 W7        29.97F
BROKEN BOW     CLEAR     53  44  71 W6        29.98F
O`NEILL        CLEAR     52  45  77 W8        29.93S
ORD            CLEAR     48  43  82 NW6       29.95S
THEDFORD       CLEAR     48  45  87 W10       30.03R
$$

NEZ041-046>049-061>064-073>077-083>087-281100-
SOUTH CENTRAL NEBRASKA

CITY           SKY/WX    TMP DP  RH WIND       PRES   REMARKS
GRAND ISLAND   CLEAR     53  50  89 W10       29.96F
AURORA         CLEAR     54  50  87 W12       29.95F
HASTINGS       CLEAR     52  48  86 W7        29.98F
HEBRON         CLEAR     55  52  90 W5        29.96S
HOLDREGE       CLEAR     52  46  82 W8        30.01S
KEARNEY *      CLEAR     55  45  67 W9        29.99S
YORK           CLEAR     52  50  93 W7        29.94F
$$

NEZ011>018-030>034-042>045-281100-
NORTHEAST NEBRASKA

CITY           SKY/WX    TMP DP  RH WIND       PRES   REMARKS
NORFOLK        CLEAR     52  46  80 W8        29.90S
ALBION         CLEAR     52  44  74 NW3       29.94R
BLAIR          CLEAR     55  51  85 W8        29.88F
FREMONT        CLEAR     52  50  93 W5        29.89F
TEKAMAH        CLEAR     52  48  86 SW5       29.87F
WAYNE          PTCLDY    55  50  85 W7        29.89S
$$

NEZ050>053-065>068-078-088>093-281100-
SOUTHEAST NEBRASKA

CITY           SKY/WX    TMP DP  RH WIND       PRES   REMARKS
LINCOLN        CLEAR     56  51  84 W3        29.93S
OMAHA EPPLEY   PTCLDY    53  48  83 SE6       29.88F
BEATRICE       CLEAR     53  51  95 CALM      29.93F
FALLS CITY     CLEAR     57  55  93 NW9       29.89F
NEBRASKA CITY  CLEAR     56  53  88 W3        29.91F
PLATTSMOUTH    CLEAR     56  52  86 W6        29.90F
$$

NEZ044-045-051>053-067-281100-
OMAHA AREA

CITY           SKY/WX    TMP DP  RH WIND       PRES   REMARKS
OMAHA EPPLEY   PTCLDY    53  48  83 SE6       29.88F
BLAIR          CLEAR     55  51  85 W8        29.88F
FREMONT        CLEAR     52  50  93 W5        29.89F
MILLARD        CLEAR     54  52  95 CALM      29.90S FOG
OFFUTT AFB     CLEAR     55  51  87 CALM      29.89F
PLATTSMOUTH    CLEAR     56  52  86 W6        29.90F
WAHOO          FAIR      56  50  82 CALM      29.90F
$$




USA.gov is the U.S. government's official web portal to all federal, state and local government web resources and services.